TimeCDT,TemperatureF,Dew PointF,Humidity,Sea Level PressureIn,VisibilityMPH,Wind Direction,Wind SpeedMPH,Gust SpeedMPH,PrecipitationIn,Events,Conditions,WindDirDegrees,DateUTC
12:56 AM,82.9,72.0,69,29.93,10.0,WSW,12.7,19.6,N/A,,Clear,240,2013-06-13 05:56:00
1:56 AM,81.9,72.0,72,29.94,10.0,WSW,9.2,-,N/A,,Clear,250,2013-06-13 06:56:00
2:56 AM,81.0,72.0,74,29.93,10.0,WSW,8.1,-,N/A,,Clear,240,2013-06-13 07:56:00
3:56 AM,79.9,70.9,74,29.92,10.0,SW,8.1,-,N/A,,Clear,230,2013-06-13 08:56:00
4:56 AM,79.9,70.9,74,29.90,10.0,SW,10.4,-,N/A,,Clear,230,2013-06-13 09:56:00
5:56 AM,79.9,72.0,77,29.90,10.0,WSW,11.5,-,N/A,,Clear,250,2013-06-13 10:56:00
6:56 AM,81.0,72.0,74,29.88,10.0,West,15.0,24.2,N/A,,Partly Cloudy,260,2013-06-13 11:56:00
7:56 AM,82.9,72.9,71,29.88,10.0,West,13.8,21.9,N/A,,Clear,260,2013-06-13 12:56:00
8:56 AM,84.9,73.9,69,29.87,10.0,West,17.3,21.9,N/A,,Partly Cloudy,270,2013-06-13 13:56:00
9:56 AM,86.9,74.8,67,29.87,10.0,West,15.0,23.0,N/A,,Partly Cloudy,280,2013-06-13 14:56:00
10:56 AM,86.9,74.8,67,29.87,10.0,West,13.8,-,N/A,,Mostly Cloudy,280,2013-06-13 15:56:00
11:56 AM,88.0,73.9,63,29.86,10.0,West,15.0,21.9,N/A,,Mostly Cloudy,270,2013-06-13 16:56:00
12:56 PM,90.0,72.9,57,29.85,10.0,West,17.3,27.6,N/A,,Scattered Clouds,280,2013-06-13 17:56:00
1:56 PM,90.9,70.9,52,29.85,10.0,NNW,19.6,28.8,N/A,,Scattered Clouds,330,2013-06-13 18:56:00
2:56 PM,86.0,70.0,59,29.86,10.0,NNW,17.3,-,N/A,,Mostly Cloudy,340,2013-06-13 19:56:00
3:56 PM,86.9,68.0,53,29.87,10.0,NW,18.4,25.3,N/A,,Clear,320,2013-06-13 20:56:00
4:56 PM,84.9,66.9,55,29.88,10.0,North,21.9,26.5,N/A,,Scattered Clouds,350,2013-06-13 21:56:00
5:56 PM,83.8,64.9,53,29.88,10.0,North,16.1,-,N/A,,Clear,350,2013-06-13 22:56:00
6:56 PM,81.0,65.8,60,29.90,10.0,North,13.8,-,N/A,,Clear,350,2013-06-13 23:56:00
7:56 PM,77.9,64.9,64,29.91,10.0,North,15.0,-,N/A,,Clear,350,2013-06-14 00:56:00
8:56 PM,75.9,66.9,74,29.94,10.0,North,10.4,-,N/A,,Clear,350,2013-06-14 01:56:00
9:56 PM,74.8,63.9,69,29.97,10.0,North,10.4,-,N/A,,Clear,360,2013-06-14 02:56:00
10:56 PM,72.9,61.9,68,29.98,10.0,North,9.2,-,N/A,,Clear,360,2013-06-14 03:56:00
11:56 PM,70.9,61.0,71,29.97,10.0,North,6.9,-,N/A,,Clear,360,2013-06-14 04:56:00